Flag for France Weather past 2 weeks in Lille, France

Now
55 °F

Passing clouds.


Feels Like: 55 °F
Forecast: 54 / 65 °F
Wind: 3 mph from Southwest

Location: Lille Airport

Current Time: May 27, 2015 at 8:01:28 AM

Latest Report: May 27, 2015 at 7:30 AM


Visibility: N/A

Pressure: 30.27 "Hg

Humidity: 67%

Dew point: 45 °F

Location of LilleLocation

Historic Weather in Lille — Graph

°F

Lille temperature yesterday

Maximum temperature yesterday: 66 °F (at 3:30 PM)
Minimum temperature yesterday: 48 °F (at 4:00 AM)
Average temperature yesterday: 57 °F

Past Weeks' High & Low Weather Summary

 TemperatureHumidityPressure
High70 °F (May 24, 5:30 PM)100% (May 13, 7:00 AM)30.36 "Hg (May 13, 7:00 AM)
Low41 °F (May 21, 4:30 AM)34% (May 21, 4:30 PM)29.68 "Hg (May 18, 7:30 PM)
Average54 °F72%30.10 "Hg
* Reported May 12 7:00 AM — May 27 7:00 AM, Lille, Weather by CustomWeather, © 2015

Note: Actual official high and low records may vary slightly from our data, if they occured in-between our weather recording intervals... More about our weather records

Advertising

Lille weather history for previous 24 hours

 ConditionsComfort  
Time TempWeatherWind HumidityBarometerVisibility
7:00 AM
Wed, May 27
54 °FSunny.3 mph67%30.27 "Hg10 mi
6:30 AM54 °FClear.3 mph67%30.27 "Hg10 mi
6:00 AM52 °FClear.3 mph82%30.27 "Hg10 mi
5:30 AM54 °FClear.2 mph77%30.27 "Hg10 mi
5:00 AM52 °FClear.No wind77%30.27 "Hg10 mi
4:30 AM54 °FClear.No wind67%30.27 "Hg10 mi
4:00 AM54 °FClear.No wind63%30.27 "Hg10 mi
3:30 AM54 °FClear.No wind63%30.27 "Hg10 mi
3:00 AM54 °FClear.No wind67%30.27 "Hg10 mi
2:30 AM54 °FClear.1 mph67%30.27 "Hg10 mi
2:00 AM54 °FClear.1 mph67%30.27 "Hg10 mi
1:30 AM54 °FClear.No wind67%30.27 "Hg10 mi
1:00 AM54 °FClear.No wind67%30.27 "Hg10 mi
12:30 AM52 °FClear.1 mph77%30.27 "Hg10 mi
12:00 AM54 °FPassing clouds.5 mph77%30.27 "HgN/A
11:30 PM
Tue, May 26
54 °FPassing clouds.3 mph77%30.27 "HgN/A
11:00 PM55 °FPassing clouds.5 mph72%30.27 "HgN/A
10:30 PM55 °FPartly sunny.7 mph72%30.27 "HgN/A
10:00 PM57 °FPassing clouds.7 mph63%30.24 "HgN/A
9:30 PM57 °FPassing clouds.9 mph63%30.24 "HgN/A
9:00 PM59 °FSunny.10 mph55%30.24 "Hg10 mi
8:30 PM61 °FPassing clouds.12 mph52%30.24 "HgN/A
8:00 PM63 °FPassing clouds.10 mph49%30.21 "HgN/A
7:30 PM63 °FPassing clouds.10 mph49%30.21 "HgN/A
7:00 PM63 °FPassing clouds.12 mph45%30.21 "HgN/A
6:30 PM64 °FPassing clouds.13 mph46%30.21 "HgN/A
6:00 PM64 °FPassing clouds.10 mph46%30.21 "HgN/A
5:30 PM64 °FScattered clouds.13 mph46%30.18 "HgN/A
5:00 PM66 °FPassing clouds.13 mph43%30.18 "HgN/A
4:30 PM66 °FScattered clouds.13 mph43%30.18 "HgN/A
4:00 PM66 °FScattered clouds.12 mph40%30.18 "HgN/A
3:30 PM66 °FScattered clouds.10 mph46%30.18 "HgN/A
3:00 PM64 °FScattered clouds.10 mph49%30.18 "HgN/A
2:30 PM61 °FBroken clouds.3 mph52%30.18 "HgN/A
2:00 PM59 °FBroken clouds.1 mph63%30.18 "HgN/A
1:30 PM61 °FBroken clouds.2 mph59%30.18 "HgN/A
1:00 PM59 °FBroken clouds.3 mph63%30.18 "HgN/A
12:30 PM59 °FBroken clouds.1 mph59%30.18 "HgN/A
12:00 PM59 °FBroken clouds.6 mph63%30.18 "HgN/A
11:30 AM59 °FBroken clouds.7 mph59%30.18 "HgN/A
11:00 AM59 °FPartly sunny.6 mph55%30.18 "HgN/A
10:30 AM59 °FPartly sunny.7 mph63%30.18 "HgN/A
10:00 AM59 °FBroken clouds.9 mph68%30.18 "HgN/A
9:30 AM57 °FScattered clouds.8 mph67%30.15 "HgN/A
9:00 AM55 °FScattered clouds.9 mph77%30.15 "HgN/A
8:30 AM55 °FScattered clouds.9 mph72%30.15 "HgN/A
8:00 AM54 °FScattered clouds.7 mph82%30.15 "HgN/A
Weather by CustomWeather, © 2015

See weather overviewHow to use our weather pages